Location: Cheching
(60.0667°N, 164.2167°W)
Time: 06:33:07
(UTC+00:00)

XW-2D - Pass Details

Date: 17 January 2021
Orbit: 505 x 525 km, 97.5° (Epoch: 08 March)

Event Time Altitude Azimuth Distance (km) Brightness Sun altitude
Rises 16:35:47 0° 19° (NNE) 2,666 ? -21.6°
Reaches altitude 10° 16:38:01 10° 28° (NNE) 1,776 ? -21.4°
Maximum altitude 16:41:36 37° 97° (E) 838 ? -20.9°
Drops below altitude 10° 16:45:10 10° 166° (SSE) 1,770 ? -20.5°
Sets 16:47:23 0° 175° (S) 2,655 ? -20.2°
